TimeAKST,TemperatureF,Dew PointF,Humidity,Sea Level PressureIn,VisibilityMPH,Wind Direction,Wind SpeedMPH,Gust SpeedMPH,PrecipitationIn,Events,Conditions,WindDirDegrees,DateUTC
12:53 AM,8.1,5.0,87,30.22,10.0,Calm,Calm,-,N/A,,Overcast,0,2013-01-11 09:53:00
1:11 AM,6.1,3.0,87,30.06,10.0,Calm,Calm,-,N/A,,Overcast,0,2013-01-11 10:11:00
1:53 AM,6.1,3.0,87,30.21,10.0,Calm,Calm,-,N/A,,Overcast,0,2013-01-11 10:53:00
2:53 AM,6.1,3.0,87,30.19,10.0,Calm,Calm,-,N/A,,Overcast,0,2013-01-11 11:53:00
3:14 AM,6.1,3.0,87,30.02,10.0,Calm,Calm,-,N/A,,Overcast,0,2013-01-11 12:14:00
3:40 AM,5.0,1.9,87,30.01,10.0,SSE,4.6,-,N/A,,Overcast,160,2013-01-11 12:40:00
3:53 AM,5.0,1.9,87,30.17,10.0,SE,3.5,-,N/A,,Overcast,130,2013-01-11 12:53:00
4:53 AM,5.0,1.9,87,30.16,10.0,Calm,Calm,-,N/A,,Overcast,0,2013-01-11 13:53:00
5:13 AM,5.0,3.0,92,30.00,10.0,Calm,Calm,-,N/A,,Overcast,0,2013-01-11 14:13:00
5:53 AM,5.0,3.0,92,30.17,5.0,Calm,Calm,-,N/A,,Overcast,0,2013-01-11 14:53:00
5:57 AM,5.0,3.0,92,30.00,5.0,Calm,Calm,-,N/A,Snow,Light Snow,0,2013-01-11 14:57:00
6:38 AM,5.0,3.0,92,30.01,10.0,Calm,Calm,-,0.00,Snow,Light Snow,0,2013-01-11 15:38:00
6:53 AM,5.0,3.0,92,30.18,9.0,Calm,Calm,-,0.00,Snow,Light Snow,0,2013-01-11 15:53:00
7:53 AM,5.0,1.9,87,30.19,9.0,Calm,Calm,-,0.00,Snow,Light Snow,0,2013-01-11 16:53:00
8:53 AM,3.2,1.4,92,30.21,9.0,Calm,Calm,-,N/A,Snow,Light Snow,0,2013-01-11 17:53:00
9:33 AM,3.9,1.0,88,30.05,5.0,Calm,Calm,-,0.00,Snow,Light Snow,0,2013-01-11 18:33:00
9:53 AM,5.0,1.9,87,30.22,5.0,Calm,Calm,-,0.00,Snow,Light Snow,0,2013-01-11 18:53:00
10:37 AM,5.0,1.9,87,30.06,5.0,Calm,Calm,-,0.00,Snow,Light Snow,0,2013-01-11 19:37:00
10:41 AM,5.0,1.9,87,30.06,1.8,Calm,Calm,-,0.00,Snow,Light Snow,0,2013-01-11 19:41:00
11:21 AM,6.1,3.0,87,30.06,3.0,Calm,Calm,-,0.00,Snow,Light Snow,0,2013-01-11 20:21:00
11:41 AM,6.1,1.9,83,30.06,1.8,Calm,Calm,-,0.00,Snow,Light Snow,0,2013-01-11 20:41:00
11:48 AM,6.8,1.4,79,30.06,2.0,Calm,Calm,-,0.00,Snow,Light Snow,0,2013-01-11 20:48:00
11:53 AM,6.1,3.0,87,30.23,2.0,Calm,Calm,-,0.00,Snow,Light Snow,0,2013-01-11 20:53:00
12:16 PM,7.0,3.0,84,30.07,3.0,Calm,Calm,-,0.00,Snow,Light Snow,0,2013-01-11 21:16:00
12:53 PM,7.0,3.0,84,30.23,7.0,Calm,Calm,-,0.00,Snow,Light Snow,0,2013-01-11 21:53:00
1:53 PM,8.1,3.9,83,30.24,10.0,North,3.5,-,0.00,Snow,Light Snow,350,2013-01-11 22:53:00
2:53 PM,8.1,5.0,87,30.25,10.0,Calm,Calm,-,0.00,,Overcast,0,2013-01-11 23:53:00
3:53 PM,9.0,6.1,88,30.26,10.0,Calm,Calm,-,N/A,,Overcast,0,2013-01-12 00:53:00
4:53 PM,10.0,7.0,87,30.28,10.0,Calm,Calm,-,N/A,,Overcast,0,2013-01-12 01:53:00
5:53 PM,10.0,7.0,87,30.28,10.0,Calm,Calm,-,N/A,,Overcast,0,2013-01-12 02:53:00
6:53 PM,10.0,7.0,87,30.30,10.0,Calm,Calm,-,N/A,,Overcast,0,2013-01-12 03:53:00
7:53 PM,9.0,5.0,84,30.30,10.0,East,3.5,-,N/A,,Mostly Cloudy,80,2013-01-12 04:53:00
8:53 PM,1.9,-0.9,88,30.34,10.0,NE,3.5,-,N/A,,Mostly Cloudy,40,2013-01-12 05:53:00
9:28 PM,3.9,1.0,88,30.16,10.0,Calm,Calm,-,N/A,,Mostly Cloudy,0,2013-01-12 06:28:00
9:53 PM,3.0,-0.9,84,30.35,10.0,Calm,Calm,-,N/A,,Clear,0,2013-01-12 06:53:00
10:53 PM,1.9,-2.0,83,30.35,10.0,WNW,3.5,-,N/A,,Clear,300,2013-01-12 07:53:00
11:53 PM,-2.9,-6.0,87,30.35,10.0,Calm,Calm,-,N/A,,Clear,0,2013-01-12 08:53:00